Regional Weather Roundup
Issued by NWS Charleston, SC

Current Version | Previous Version | Graphics & Text | Print | Product List | Glossary On
Versions: 1 2 3 4 5 6 7 8 9 10 11 12 13 14 15 16 17 18 19 20 21 22 23 24 25 26 27 28 29 30 31 32 33 34 35 36 37 38 39 40 41 42 43 44 45 46 47 48 49 50
000
ASUS42 KCHS 312110
RWRCHS
REGIONAL WEATHER ROUNDUP
NATIONAL WEATHER SERVICE CHARLESTON SC
500 PM EDT THU JUL 31 2014

NOTE: "FAIR" INDICATES FEW OR NO CLOUDS BELOW 12,000 FEET WITH NO
SIGNIFICANT WEATHER AND/OR OBSTRUCTIONS TO VISIBILITY.

NOT ALL STATIONS ARE QUALITY CONTROLLED BY THE NATIONAL
WEATHER SERVICE. USE DATA WITH CAUTION...ESPECIALLY
DEWPOINT OBSERVATIONS.

SCZ027-030-031-034>040-042>050-312200-
...SOUTH CAROLINA...

CITY           SKY/WX    TMP DP  RH WIND       PRES   REMARKS
N CHARLESTON   LGT RAIN  77  71  82 CALM      30.03F
WATERFRONT PRK   N/A     75 N/A N/A SW5G10      N/A
FORT JOHNSON   NOT AVBL
MOUNT PLEASANT FAIR      79  73  83 E6        30.02F
JOHNS ISLAND   LGT RAIN  75  72  88 CALM      30.03F
PINOPOLIS        N/A     81  73  78 E13       29.97R
MONCKS CORNER  LGT RAIN  77  77 100 NE9       30.03F
SUMMERVILLE    FAIR      75  75 100 CALM      30.04F
BEAUFORT MCAS  PTSUNNY   81  72  74 E10       30.00F
BEAUFORT ARPT  FAIR      81  75  83 NE16      30.00F
HILTON HEAD IS MOSUNNY   84  73  70 E5        30.00F HX  91
GEORGETOWN     NOT AVBL
WALTERBORO     CLOUDY    77  77 100 E9        30.02F
ORANGEBURG     CLOUDY    77  70  79 NE7       30.03F
BARNWELL       FAIR      81  70  69 E12       30.03F
AIKEN          LGT RAIN  72  72 100 NE3       30.09S
MANNING        MOCLDY    77 N/A N/A E5        30.05F
KINGSTREE      NOT AVBL
COLUMBIA       RAIN      73  69  87 E9        30.06R FOG
SUMTER         LGT RAIN  72  70  94 SE10      30.07F FOG
FLORENCE       LGT RAIN  78  72  81 SE6       30.08R
MYRTLE BEACH   PTSUNNY   82  72  69 E14       30.06F
N MYRTLE BEACH CLOUDY    83  69  62 E12       30.06F

$$

GAZ063-065-086>088-099>101-113>116-118-119-134-136>141-150-312200-
...GEORGIA...

CITY           SKY/WX    TMP DP  RH WIND       PRES   REMARKS
SAVANNAH ARPT  LGT RAIN  79  75  87 NE10      29.98F
HUNTER AAF     PTSUNNY   83  74  73 VRB6      29.96S HX  90
FORT STEWART   PTSUNNY   87  74  63 N7        29.95F HX  95
STATESBORO     NOT AVBL
SYLVANIA       MOCLDY    78  76  91 E3        30.02R
CLAXTON        FAIR      86  75  70 NE8       29.97S HX  95
THOMSON        CLOUDY    74  74 100 NE5       30.10R
AUGUSTA-BUSH   PTSUNNY   78  71  79 N7        30.03R
AUGUSTA-DANIEL CLOUDY    75  69  81 NE8       30.05R
SWAINSBORO     MOCLDY    86  77  74 E8        30.01S HX  97
VIDALIA          N/A     84  73  70 N10G16    29.98F HX  91
ALMA           MOSUNNY   93  56  28 S9        29.95S HX  91
WAYCROSS       SUNNY     96  64  33 W8        29.95F HX  98
JESUP          FAIR      97  63  32 SW7       29.95S HX  98
BRUNSWICK      PTSUNNY   91  64  40 SE10      29.97F HX  93
SAINT SIMONS   PTSUNNY   89  68  49 SE14      29.97S HX  93

$$

SCZ027-028-034-036>038-045-046-048>050-GAZ119-141-312200-
...LAKE AND SUPPLEMENTAL COASTAL OBSERVATIONS...

STATION/POSITION TIME  TEMP    WIND        PRES    WAVE   SWELL
                       AIR SEA DIR/SP/G            HT/PER HT/PER/DIR
                 (UTC) (F)     (DEG/KT/KT) (MB)    (FT/S) (FT/S/D)
UPR LAKE MARION  NOT AVBL
WINYAH BAY       2000   83      90/ 13     1017.0S
LAKE MURRAY      2000   78     100/  6/  8 1017.3R
ACE BASIN NERRS  2000   77      50/  4     1017.0S
FORT PULASKI     2100   86     130/  8/ 11 1015.3F
SAPELO ISLAND    2000   92     140/ 10     1016.0S

$$

ANZ835-935-AMZ111-154-330-350-352-354-374-450-454-472-312200-
...C-MAN AND BUOY OBSERVATIONS...

STATION/POSITION TIME  TEMP    WIND        PRES    WAVE   SWELL
                       AIR SEA DIR/SP/G            HT/PER HT/PER/DIR
                 (UTC) (F)     (DEG/KT/KT) (MB)    (FT/S) (FT/S/D)
FOLLY BEACH CMAN 2000   80      90/ 20/ 22 1017.0F
BUOY 41004       2100   84 83  120/ 16/ 17 1015.6F   4/ 5   2/13
BUOY 41008       2100   85 86  150/ 10/ 14 1015.0F   2/ 5   2/ 60/ 5
5E ST. MARYS GA  2100      86                N/A     2/ 9
FRYING PAN BUOY  NOT AVBL
BUOY 41025       2100          VRB 12/ 14  1019.8F   3/ 6   3/120/ 6
CAPE LOOKOUT NC  2100   80      90/ 12/ 13 1019.7R
BUOY 41002       1954   80 81  200/  4/  6 1018.6F   4/ 6   3/110/ 6
BUOY 41010       2100   83 84  180/  8/  8 1016.1R   2/ 8   2/110/ 8
BUOY 41012       NOT AVBL
ST AUGUSTINE FL  2100   83     120/ 11/ 12 1015.4F
CAPERS NEARSHORE 2000   77      90/ 19/ 23   N/A
FRIPP NEARSHORE  NOT AVBL


$$


USA.gov is the U.S. government's official web portal to all federal, state and local government web resources and services.